| time (UTC) | temp F | wind direction | speed knots | gust knots | rain 1hr in | rain 24hr in | rain mn in | humidity % | barometer mb |
| 20260509101603 | 51 | 76 | 0.0 | 3.5 | 0.00 | 0.01 | 0.00 | 77 | 1022.5 |
| 20260509101052 | 51 | 83 | 1.7 | 3.5 | 0.00 | 0.01 | 0.00 | 77 | 1022.4 |
| 20260509100553 | 51 | 84 | 1.7 | 5.2 | 0.00 | 0.01 | 0.00 | 77 | 1022.6 |
| 20260509100053 | 51 | 115 | 1.7 | 5.2 | 0.00 | 0.01 | 0.00 | 76 | 1022.5 |
| 20260509095552 | 51 | 84 | 0.9 | 4.3 | 0.00 | 0.01 | 0.00 | 78 | 1022.6 |
| 20260509095052 | 50 | 269 | 0.9 | 3.5 | 0.00 | 0.01 | 0.00 | 78 | 1022.6 |
| 20260509094603 | 50 | 70 | 0.0 | 4.3 | 0.00 | 0.01 | 0.00 | 78 | 1022.6 |
| 20260509094052 | 50 | 86 | 2.6 | 4.3 | 0.00 | 0.01 | 0.00 | 77 | 1022.5 |
| 20260509093551 | 50 | 249 | 0.0 | 3.5 | 0.00 | 0.01 | 0.00 | 80 | 1022.6 |
| 20260509093051 | 50 | 174 | 0.0 | 4.3 | 0.00 | 0.01 | 0.00 | 78 | 1022.5 |
| 20260509092551 | 50 | 99 | 0.9 | 4.3 | 0.00 | 0.01 | 0.00 | 77 | 1022.5 |
| 20260509092050 | 50 | 49 | 0.9 | 3.5 | 0.00 | 0.01 | 0.00 | 76 | 1022.5 |
| 20260509091550 | 50 | 104 | 0.9 | 2.6 | 0.00 | 0.01 | 0.00 | 76 | 1022.5 |
| 20260509091050 | 50 | 87 | 0.9 | 3.5 | 0.00 | 0.01 | 0.00 | 76 | 1022.4 |
| 20260509090553 | 51 | 75 | 0.9 | 5.2 | 0.00 | 0.01 | 0.00 | 78 | 1022.5 |
| 20260509090059 | 51 | 355 | 1.7 | 5.2 | 0.00 | 0.01 | 0.00 | 77 | 1022.5 |
| 20260509085549 | 50 | 68 | 0.0 | 3.5 | 0.00 | 0.01 | 0.00 | 76 | 1022.5 |
| 20260509085049 | 50 | 65 | 0.9 | 3.5 | 0.00 | 0.01 | 0.00 | 77 | 1022.4 |
| 20260509084553 | 50 | 119 | 0.0 | 3.5 | 0.00 | 0.01 | 0.00 | 78 | 1022.4 |
| 20260509084050 | 50 | 65 | 0.0 | 3.5 | 0.00 | 0.01 | 0.00 | 76 | 1022.6 |
| 20260509083549 | 51 | 89 | 0.9 | 2.6 | 0.00 | 0.01 | 0.00 | 76 | 1022.5 |
| 20260509083057 | 51 | 87 | 0.9 | 3.5 | 0.00 | 0.01 | 0.00 | 75 | 1022.5 |
| 20260509082548 | 52 | 72 | 1.7 | 7.0 | 0.00 | 0.01 | 0.00 | 75 | 1022.5 |
| 20260509082049 | 52 | 85 | 0.9 | 7.0 | 0.00 | 0.01 | 0.00 | 75 | 1022.5 |
| 20260509081548 | 52 | 80 | 0.9 | 5.2 | 0.00 | 0.01 | 0.00 | 78 | 1022.4 |
| 20260509081048 | 51 | 78 | 0.9 | 3.5 | 0.00 | 0.01 | 0.00 | 76 | 1022.2 |
| 20260509080548 | 51 | 182 | 0.9 | 3.5 | 0.00 | 0.01 | 0.00 | 77 | 1022.3 |
| 20260509080047 | 51 | 134 | 0.0 | 3.5 | 0.00 | 0.01 | 0.00 | 74 | 1022.3 |
| 20260509075545 | 51 | 126 | 0.0 | 6.1 | 0.00 | 0.01 | 0.00 | 75 | 1022.4 |
| 20260509075044 | 50 | 84 | 1.7 | 8.7 | 0.00 | 0.01 | 0.00 | 75 | 1022.3 |
| 20260509074551 | 50 | 83 | 0.9 | 8.7 | 0.00 | 0.01 | 0.00 | 78 | 1022.4 |
| 20260509074043 | 51 | 89 | 2.6 | 5.2 | 0.00 | 0.01 | 0.00 | 79 | 1022.5 |
| 20260509073542 | 51 | 90 | 1.7 | 4.3 | 0.00 | 0.01 | 0.00 | 77 | 1022.5 |
| 20260509073040 | 50 | 78 | 0.9 | 3.5 | 0.00 | 0.01 | 0.00 | 79 | 1022.5 |
| 20260509072540 | 50 | 111 | 0.9 | 7.0 | 0.00 | 0.01 | 0.00 | 83 | 1022.5 |
| 20260509072039 | 50 | 76 | 1.7 | 7.8 | 0.00 | 0.01 | 0.00 | 83 | 1022.4 |
| 20260509071543 | 49 | 105 | 1.7 | 6.1 | 0.00 | 0.01 | 0.00 | 82 | 1022.3 |
| 20260509071037 | 49 | 40 | 1.7 | 7.0 | 0.00 | 0.01 | 0.00 | 85 | 1022.5 |
| 20260509070537 | 49 | 53 | 0.9 | 7.0 | 0.00 | 0.01 | 0.00 | 86 | 1022.4 |
| 20260509070036 | 49 | 90 | 2.6 | 7.8 | 0.00 | 0.01 | 0.00 | 85 | 1022.4 |
| 20260509065534 | 49 | 95 | 2.6 | 7.8 | 0.00 | 0.01 | 0.00 | 87 | 1022.4 |
| 20260509065033 | 49 | 86 | 0.9 | 6.1 | 0.00 | 0.01 | 0.00 | 89 | 1022.4 |
| 20260509064532 | 48 | 74 | 1.7 | 6.1 | 0.00 | 0.01 | 0.00 | 90 | 1022.3 |
| 20260509064031 | 48 | 94 | 1.7 | 5.2 | 0.00 | 0.01 | 0.00 | 91 | 1022.3 |
| 20260509063530 | 47 | 77 | 0.9 | 4.3 | 0.00 | 0.01 | 0.00 | 93 | 1022.4 |
| 20260509063028 | 46 | 63 | 0.0 | 3.5 | 0.00 | 0.01 | 0.00 | 93 | 1022.4 |
| 20260509062527 | 46 | 90 | 0.0 | 2.6 | 0.00 | 0.01 | 0.00 | 94 | 1022.4 |
| 20260509062026 | 46 | 90 | 0.0 | 2.6 | 0.00 | 0.01 | 0.00 | 93 | 1022.4 |
| 20260509061525 | 46 | 80 | 0.9 | 6.1 | 0.00 | 0.01 | 0.00 | 94 | 1022.3 |
| 20260509061030 | 46 | 58 | 0.9 | 6.1 | 0.00 | 0.01 | 0.00 | 94 | 1022.3 |
| 20260509060524 | 45 | 71 | 0.9 | 6.1 | 0.00 | 0.01 | 0.00 | 94 | 1022.2 |
| 20260509060023 | 45 | 87 | 0.9 | 6.1 | 0.00 | 0.01 | 0.00 | 94 | 1022.4 |
| 20260509055526 | 45 | 33 | 0.0 | 2.6 | 0.00 | 0.01 | 0.00 | 95 | 1022.4 |
| 20260509055021 | 45 | 71 | 0.9 | 2.6 | 0.00 | 0.01 | 0.00 | 95 | 1022.2 |
| 20260509054520 | 45 | 78 | 0.9 | 2.6 | 0.00 | 0.01 | 0.00 | 95 | 1022.2 |
| 20260509054019 | 45 | 78 | 0.0 | 3.5 | 0.00 | 0.01 | 0.00 | 95 | 1022.1 |
| 20260509053519 | 45 | 77 | 0.9 | 3.5 | 0.00 | 0.01 | 0.00 | 95 | 1022.3 |
| 20260509053018 | 45 | 67 | 0.9 | 3.5 | 0.00 | 0.01 | 0.00 | 95 | 1022.4 |
| 20260509052517 | 45 | 67 | 0.9 | 3.5 | 0.00 | 0.01 | 0.00 | 94 | 1022.2 |
| 20260509052015 | 45 | 78 | 0.9 | 3.5 | 0.00 | 0.01 | 0.00 | 95 | 1022.2 |
| 20260509051515 | 45 | 76 | 0.0 | 2.6 | 0.00 | 0.01 | 0.00 | 95 | 1022.1 |
| 20260509051017 | 45 | 76 | 0.9 | 2.6 | 0.00 | 0.01 | 0.00 | 95 | 1022.0 |
| 20260509050514 | 45 | 76 | 0.9 | 2.6 | 0.00 | 0.01 | 0.00 | 95 | 1022.1 |
| 20260509050018 | 45 | 81 | 0.0 | 2.6 | 0.00 | 0.01 | 0.00 | 95 | 1022.0 |
| 20260509045519 | 45 | 82 | 0.9 | 4.3 | 0.00 | 0.01 | 0.00 | 94 | 1022.0 |
| 20260509045010 | 45 | 54 | 1.7 | 4.3 | 0.00 | 0.01 | 0.00 | 94 | 1022.1 |
| 20260509044509 | 45 | 80 | 0.9 | 2.6 | 0.00 | 0.01 | 0.00 | 94 | 1022.0 |
| 20260509044011 | 45 | 94 | 0.0 | 2.6 | 0.00 | 0.01 | 0.00 | 94 | 1022.0 |
| 20260509043509 | 45 | 63 | 0.0 | 1.7 | 0.00 | 0.01 | 0.00 | 94 | 1022.0 |
| 20260509043007 | 45 | 62 | 0.0 | 1.7 | 0.00 | 0.01 | 0.00 | 94 | 1021.9 |
| 20260509042507 | 45 | 63 | 0.0 | 2.6 | 0.00 | 0.01 | 0.00 | 93 | 1021.8 |
| 20260509042010 | 45 | 63 | 0.0 | 3.5 | 0.00 | 0.01 | 0.00 | 93 | 1021.7 |
| 20260509041507 | 45 | 69 | 0.0 | 3.5 | 0.00 | 0.01 | 0.00 | 93 | 1021.7 |
| 20260509041005 | 44 | 71 | 0.9 | 2.6 | 0.00 | 0.01 | 0.00 | 93 | 1021.7 |
| 20260509040503 | 44 | 74 | 0.9 | 2.6 | 0.00 | 0.01 | 0.00 | 93 | 1021.6 |
| 20260509040003 | 44 | 69 | 0.0 | 3.5 | 0.00 | 0.01 | 0.00 | 93 | 1021.7 |
| 20260509035502 | 44 | 69 | 0.0 | 3.5 | 0.00 | 0.01 | 0.00 | 93 | 1021.6 |
| 20260509035001 | 44 | 78 | 0.0 | 0.0 | 0.00 | 0.01 | 0.00 | 93 | 1021.7 |
| 20260509034501 | 44 | 79 | 0.0 | 1.7 | 0.00 | 0.01 | 0.00 | 93 | 1021.6 |
| 20260509034100 | 44 | 77 | 0.0 | 1.7 | 0.00 | 0.01 | 0.00 | 93 | 1021.7 |
| 20260509033603 | 44 | 331 | 0.0 | 1.7 | 0.00 | 0.01 | 0.00 | 93 | 1021.7 |
| 20260509033100 | 44 | 63 | 0.0 | 0.0 | 0.00 | 0.01 | 0.00 | 93 | 1021.6 |
| 20260509033002 | 44 | 63 | 0.0 | 0.0 | 0.00 | 0.01 | 0.00 | 93 | 1021.7 |
| 20260509032559 | 44 | 63 | 0.0 | 0.0 | 0.00 | 0.01 | 0.00 | 93 | 1021.7 |
| 20260509032058 | 44 | 63 | 0.0 | 0.0 | 0.00 | 0.01 | 0.00 | 93 | 1021.6 |
| 20260509031602 | 44 | 74 | 0.0 | 1.7 | 0.00 | 0.01 | 0.00 | 94 | 1021.6 |
| 20260509031058 | 44 | 76 | 0.0 | 1.7 | 0.00 | 0.01 | 0.00 | 94 | 1021.7 |
| 20260509030558 | 44 | 76 | 0.0 | 1.7 | 0.00 | 0.01 | 0.00 | 94 | 1021.8 |
| 20260509030113 | 44 | 78 | 0.0 | 1.7 | 0.00 | 0.01 | 0.00 | 94 | 1021.8 |
| 20260509025557 | 44 | 76 | 0.0 | 0.0 | 0.00 | 0.01 | 0.00 | 94 | 1021.8 |
| 20260509025101 | 44 | 77 | 0.0 | 1.7 | 0.00 | 0.01 | 0.00 | 94 | 1021.7 |
| 20260509024601 | 44 | 78 | 0.0 | 2.6 | 0.00 | 0.01 | 0.00 | 94 | 1021.8 |
| 20260509024057 | 44 | 68 | 0.0 | 1.7 | 0.00 | 0.01 | 0.00 | 94 | 1021.8 |
| 20260509023559 | 44 | 66 | 0.0 | 0.0 | 0.00 | 0.01 | 0.00 | 94 | 1021.8 |
| 20260509023059 | 44 | 66 | 0.0 | 1.7 | 0.00 | 0.01 | 0.00 | 94 | 1021.9 |
| 20260509022556 | 44 | 66 | 0.0 | 1.7 | 0.00 | 0.01 | 0.00 | 94 | 1021.9 |
| 20260509022059 | 44 | 66 | 0.0 | 1.7 | 0.00 | 0.01 | 0.00 | 94 | 1021.9 |
| 20260509021557 | 44 | 67 | 0.0 | 1.7 | 0.00 | 0.01 | 0.00 | 94 | 1022.0 |
| 20260509021058 | 44 | 67 | 0.0 | 0.0 | 0.00 | 0.01 | 0.00 | 94 | 1022.0 |
| 20260509020555 | 44 | 67 | 0.0 | 1.7 | 0.00 | 0.01 | 0.00 | 94 | 1022.0 |
| 20260509020105 | 44 | 68 | 0.0 | 1.7 | 0.00 | 0.01 | 0.00 | 94 | 1021.8 |
| 20260509015555 | 44 | 68 | 0.0 | 1.7 | 0.00 | 0.01 | 0.00 | 94 | 1021.9 |
| 20260509015055 | 44 | 69 | 0.0 | 1.7 | 0.00 | 0.01 | 0.00 | 94 | 1021.8 |
| 20260509014556 | 44 | 69 | 0.0 | 1.7 | 0.00 | 0.01 | 0.00 | 94 | 1021.8 |
| 20260509014054 | 44 | 68 | 0.0 | 3.5 | 0.00 | 0.01 | 0.00 | 94 | 1021.8 |
| 20260509013554 | 44 | 67 | 0.0 | 3.5 | 0.00 | 0.01 | 0.00 | 94 | 1021.8 |
| 20260509013058 | 44 | 61 | 0.9 | 2.6 | 0.00 | 0.01 | 0.00 | 94 | 1021.7 |
| 20260509012553 | 44 | 67 | 0.9 | 2.6 | 0.00 | 0.01 | 0.00 | 94 | 1021.8 |
| 20260509012052 | 44 | 34 | 0.9 | 2.6 | 0.00 | 0.01 | 0.00 | 95 | 1021.7 |
| 20260509011556 | 44 | 57 | 0.0 | 2.6 | 0.00 | 0.01 | 0.00 | 95 | 1021.7 |
| 20260509011052 | 44 | 336 | 0.0 | 2.6 | 0.00 | 0.01 | 0.00 | 95 | 1021.7 |
| 20260509010551 | 44 | 66 | 0.9 | 2.6 | 0.00 | 0.01 | 0.00 | 96 | 1021.7 |
| 20260509010051 | 44 | 67 | 0.0 | 2.6 | 0.00 | 0.01 | 0.00 | 96 | 1021.7 |
| 20260509005550 | 44 | 69 | 0.9 | 2.6 | 0.00 | 0.01 | 0.00 | 97 | 1021.7 |
| 20260509005051 | 44 | 70 | 0.0 | 2.6 | 0.00 | 0.01 | 0.00 | 97 | 1021.7 |
| 20260509004557 | 44 | 70 | 0.9 | 2.6 | 0.00 | 0.01 | 0.00 | 97 | 1021.6 |
| 20260509004049 | 44 | 71 | 0.0 | 2.6 | 0.00 | 0.01 | 0.00 | 97 | 1021.7 |
| 20260509003549 | 44 | 74 | 0.0 | 2.6 | 0.00 | 0.01 | 0.00 | 98 | 1021.8 |
| 20260509003054 | 44 | 64 | 0.9 | 2.6 | 0.00 | 0.01 | 0.00 | 98 | 1021.7 |
| 20260509002547 | 44 | 63 | 0.9 | 2.6 | 0.00 | 0.01 | 0.00 | 97 | 1021.7 |
| 20260509002048 | 44 | 73 | 0.9 | 2.6 | 0.00 | 0.01 | 0.00 | 97 | 1021.8 |
| 20260509001546 | 44 | 84 | 0.0 | 2.6 | 0.00 | 0.01 | 0.00 | 97 | 1021.9 |
| 20260509001045 | 44 | 81 | 0.0 | 2.6 | 0.00 | 0.01 | 0.00 | 97 | 1021.8 |
| 20260509000545 | 44 | 81 | 0.0 | 1.7 | 0.00 | 0.01 | 0.00 | 97 | 1021.8 |
| 20260509000044 | 44 | 82 | 0.0 | 0.0 | 0.00 | 0.01 | 0.00 | 98 | 1021.8 |
| 20260508235544 | 44 | 82 | 0.0 | 0.0 | 0.00 | 0.01 | 0.00 | 98 | 1022.0 |
| 20260508235045 | 44 | 82 | 0.0 | 0.0 | 0.00 | 0.01 | 0.00 | 98 | 1022.0 |
| 20260508234544 | 44 | 83 | 0.0 | 1.7 | 0.00 | 0.01 | 0.00 | 98 | 1022.0 |
| 20260508234043 | 44 | 83 | 0.0 | 1.7 | 0.00 | 0.01 | 0.00 | 98 | 1022.0 |
| 20260508233544 | 44 | 84 | 0.0 | 1.7 | 0.00 | 0.01 | 0.00 | 97 | 1021.9 |
| 20260508233043 | 44 | 91 | 0.9 | 3.5 | 0.00 | 0.01 | 0.00 | 97 | 1022.0 |
| 20260508232544 | 44 | 94 | 0.9 | 3.5 | 0.00 | 0.01 | 0.00 | 97 | 1022.0 |
| 20260508232041 | 44 | 94 | 0.9 | 2.6 | 0.00 | 0.01 | 0.00 | 98 | 1022.0 |
| 20260508231540 | 44 | 62 | 0.0 | 0.9 | 0.00 | 0.01 | 0.00 | 98 | 1022.1 |
| 20260508231040 | 44 | 61 | 0.0 | 1.7 | 0.00 | 0.01 | 0.00 | 98 | 1021.9 |
| 20260508230541 | 44 | 61 | 0.9 | 3.5 | 0.00 | 0.01 | 0.00 | 98 | 1022.1 |
| 20260508230040 | 44 | 350 | 0.0 | 3.5 | 0.00 | 0.01 | 0.00 | 98 | 1022.0 |
| 20260508225539 | 44 | 81 | 0.0 | 2.6 | 0.00 | 0.01 | 0.00 | 98 | 1022.1 |
| 20260508225041 | 44 | 96 | 0.0 | 2.6 | 0.00 | 0.01 | 0.00 | 97 | 1022.1 |
| 20260508224549 | 44 | 96 | 0.9 | 2.6 | 0.00 | 0.01 | 0.00 | 98 | 1022.1 |
| 20260508224037 | 44 | 89 | 0.0 | 2.6 | 0.00 | 0.01 | 0.00 | 97 | 1022.1 |
| 20260508223536 | 44 | 87 | 0.0 | 2.6 | 0.00 | 0.01 | 0.00 | 98 | 1022.1 |
| 20260508223046 | 44 | 88 | 0.0 | 2.6 | 0.00 | 0.01 | 0.00 | 98 | 1022.1 |
| 20260508222535 | 44 | 97 | 0.0 | 5.2 | 0.00 | 0.01 | 0.00 | 98 | 1022.2 |
| 20260508222034 | 44 | 97 | 1.7 | 5.2 | 0.00 | 0.01 | 0.00 | 98 | 1022.1 |
| 20260508221534 | 44 | 103 | 1.7 | 3.5 | 0.00 | 0.01 | 0.00 | 98 | 1022.2 |
| 20260508221033 | 44 | 98 | 0.0 | 2.6 | 0.00 | 0.01 | 0.00 | 98 | 1022.1 |
| 20260508220532 | 44 | 98 | 0.9 | 3.5 | 0.00 | 0.01 | 0.00 | 98 | 1022.1 |
| 20260508220034 | 44 | 98 | 1.7 | 3.5 | 0.00 | 0.01 | 0.00 | 98 | 1022.1 |
| 20260508215532 | 44 | 80 | 0.9 | 3.5 | 0.00 | 0.01 | 0.01 | 98 | 1022.2 |
| 20260508215032 | 44 | 94 | 1.7 | 3.5 | 0.00 | 0.01 | 0.01 | 98 | 1022.2 |
| 20260508214531 | 44 | 100 | 0.0 | 2.6 | 0.00 | 0.01 | 0.01 | 97 | 1022.1 |
| 20260508214031 | 44 | 89 | 0.9 | 3.5 | 0.00 | 0.01 | 0.01 | 97 | 1022.0 |
| 20260508213531 | 44 | 87 | 1.7 | 3.5 | 0.00 | 0.01 | 0.01 | 97 | 1022.2 |
| 20260508213031 | 44 | 65 | 0.0 | 2.6 | 0.00 | 0.01 | 0.01 | 97 | 1022.2 |
| 20260508212531 | 44 | 63 | 0.0 | 1.7 | 0.00 | 0.01 | 0.01 | 97 | 1022.1 |
| 20260508212033 | 44 | 53 | 0.0 | 3.5 | 0.00 | 0.01 | 0.01 | 97 | 1022.2 |
| 20260508211530 | 44 | 53 | 0.0 | 3.5 | 0.00 | 0.01 | 0.01 | 97 | 1022.2 |
| 20260508211030 | 44 | 90 | 0.9 | 2.6 | 0.00 | 0.01 | 0.01 | 97 | 1022.1 |
| 20260508210530 | 44 | 87 | 0.9 | 2.6 | 0.00 | 0.01 | 0.01 | 97 | 1022.1 |
| 20260508210031 | 44 | 112 | 0.0 | 2.6 | 0.00 | 0.01 | 0.01 | 97 | 1022.2 |
| 20260508205531 | 44 | 107 | 0.9 | 2.6 | 0.00 | 0.01 | 0.01 | 97 | 1022.2 |
| 20260508205030 | 44 | 112 | 0.0 | 0.0 | 0.00 | 0.01 | 0.01 | 97 | 1022.1 |
| 20260508204532 | 44 | 111 | 0.0 | 0.0 | 0.00 | 0.01 | 0.01 | 97 | 1022.1 |
| 20260508204029 | 44 | 112 | 0.0 | 2.6 | 0.00 | 0.01 | 0.01 | 97 | 1022.1 |
| 20260508203528 | 43 | 105 | 0.0 | 4.3 | 0.00 | 0.01 | 0.01 | 97 | 1022.1 |
| 20260508203028 | 43 | 100 | 0.9 | 4.3 | 0.00 | 0.01 | 0.01 | 97 | 1022.0 |
| 20260508202528 | 43 | 105 | 0.9 | 3.5 | 0.00 | 0.01 | 0.01 | 97 | 1022.0 |
| 20260508202029 | 43 | 107 | 0.0 | 7.0 | 0.00 | 0.01 | 0.01 | 97 | 1022.0 |
| 20260508201530 | 43 | 96 | 1.7 | 7.0 | 0.00 | 0.01 | 0.01 | 97 | 1021.9 |
| 20260508201029 | 43 | 168 | 0.9 | 4.3 | 0.00 | 0.01 | 0.01 | 97 | 1021.8 |
| 20260508200526 | 43 | 113 | 0.9 | 3.5 | 0.00 | 0.01 | 0.01 | 97 | 1021.7 |
| 20260508200027 | 43 | 89 | 1.7 | 3.5 | 0.00 | 0.01 | 0.01 | 97 | 1021.6 |
| 20260508195530 | 43 | 102 | 1.7 | 5.2 | 0.00 | 0.01 | 0.01 | 97 | 1021.6 |
| 20260508195025 | 43 | 91 | 1.7 | 6.1 | 0.00 | 0.01 | 0.01 | 97 | 1021.5 |
| 20260508194533 | 43 | 93 | 0.9 | 3.5 | 0.00 | 0.01 | 0.01 | 97 | 1021.6 |
| 20260508194024 | 43 | 95 | 0.9 | 2.6 | 0.00 | 0.01 | 0.01 | 97 | 1021.6 |
| 20260508193524 | 43 | 97 | 0.9 | 2.6 | 0.00 | 0.01 | 0.01 | 97 | 1021.5 |
| 20260508193024 | 43 | 84 | 0.9 | 3.5 | 0.00 | 0.01 | 0.01 | 97 | 1021.5 |
| 20260508192528 | 43 | 86 | 0.9 | 2.6 | 0.00 | 0.01 | 0.01 | 97 | 1021.4 |
| 20260508192024 | 43 | 60 | 0.9 | 3.5 | 0.00 | 0.01 | 0.01 | 97 | 1021.4 |
| 20260508191532 | 43 | 43 | 0.9 | 3.5 | 0.00 | 0.01 | 0.01 | 97 | 1021.3 |
| 20260508191023 | 43 | 76 | 0.9 | 2.6 | 0.00 | 0.01 | 0.01 | 97 | 1021.5 |
| 20260508190623 | 43 | 76 | 0.0 | 2.6 | 0.00 | 0.01 | 0.01 | 97 | 1021.4 |
| 20260508190024 | 43 | 116 | 0.0 | 0.9 | 0.00 | 0.01 | 0.01 | 96 | 1021.4 |
| 20260508185522 | 43 | 116 | 0.0 | 1.7 | 0.00 | 0.02 | 0.01 | 96 | 1021.4 |
| 20260508185022 | 43 | 98 | 0.0 | 2.6 | 0.00 | 0.02 | 0.01 | 96 | 1021.3 |
| 20260508184524 | 44 | 98 | 0.0 | 2.6 | 0.00 | 0.02 | 0.01 | 96 | 1021.3 |
| 20260508184022 | 44 | 96 | 0.0 | 1.7 | 0.00 | 0.02 | 0.01 | 96 | 1021.3 |
| 20260508183522 | 44 | 96 | 0.0 | 1.7 | 0.00 | 0.02 | 0.01 | 95 | 1021.2 |
| 20260508183028 | 44 | 80 | 0.0 | 0.9 | 0.00 | 0.02 | 0.01 | 95 | 1021.2 |
| 20260508182521 | 44 | 80 | 0.0 | 0.9 | 0.00 | 0.02 | 0.01 | 95 | 1021.1 |
| 20260508182020 | 45 | 79 | 0.0 | 0.9 | 0.00 | 0.02 | 0.01 | 95 | 1021.1 |
| 20260508181520 | 45 | 77 | 0.0 | 1.7 | 0.00 | 0.02 | 0.01 | 95 | 1021.1 |
| 20260508181021 | 45 | 77 | 0.0 | 1.7 | 0.00 | 0.02 | 0.01 | 95 | 1021.1 |
| 20260508180520 | 45 | 90 | 0.0 | 0.0 | 0.00 | 0.02 | 0.01 | 95 | 1021.0 |
| 20260508180022 | 45 | 78 | 0.0 | 1.7 | 0.00 | 0.02 | 0.01 | 94 | 1021.0 |
| 20260508175520 | 46 | 81 | 0.0 | 2.6 | 0.00 | 0.02 | 0.01 | 94 | 1021.0 |
| 20260508175020 | 46 | 61 | 0.9 | 2.6 | 0.00 | 0.02 | 0.01 | 95 | 1021.1 |
| 20260508174520 | 46 | 49 | 0.0 | 2.6 | 0.00 | 0.02 | 0.01 | 95 | 1020.9 |
| 20260508174022 | 46 | 101 | 0.9 | 2.6 | 0.00 | 0.02 | 0.01 | 95 | 1021.1 |
| 20260508173519 | 46 | 83 | 0.0 | 1.7 | 0.00 | 0.02 | 0.01 | 95 | 1021.0 |
| 20260508173020 | 46 | 64 | 0.0 | 3.5 | 0.00 | 0.02 | 0.01 | 94 | 1020.9 |
| 20260508172518 | 46 | 70 | 0.9 | 3.5 | 0.00 | 0.02 | 0.01 | 94 | 1020.9 |
| 20260508172018 | 46 | 94 | 0.9 | 3.5 | 0.00 | 0.02 | 0.01 | 94 | 1020.9 |
| 20260508171518 | 47 | 108 | 0.9 | 2.6 | 0.00 | 0.02 | 0.01 | 94 | 1020.9 |
| 20260508171017 | 47 | 67 | 0.0 | 2.6 | 0.00 | 0.02 | 0.01 | 94 | 1021.0 |
| 20260508170517 | 47 | 65 | 0.0 | 3.5 | 0.00 | 0.02 | 0.01 | 94 | 1020.9 |
| 20260508170019 | 47 | 76 | 0.0 | 3.5 | 0.00 | 0.02 | 0.01 | 94 | 1020.9 |
| 20260508165619 | 47 | 39 | 0.0 | 1.7 | 0.00 | 0.03 | 0.01 | 94 | 1020.8 |
| 20260508165023 | 47 | 100 | 0.0 | 3.5 | 0.00 | 0.03 | 0.01 | 94 | 1020.8 |
| 20260508164517 | 47 | 102 | 0.9 | 3.5 | 0.00 | 0.03 | 0.01 | 93 | 1020.7 |
| 20260508164017 | 47 | 102 | 0.9 | 3.5 | 0.00 | 0.03 | 0.01 | 93 | 1020.9 |
| 20260508163516 | 47 | 74 | 0.9 | 3.5 | 0.00 | 0.03 | 0.01 | 93 | 1020.8 |
| 20260508163027 | 47 | 103 | 0.0 | 3.5 | 0.00 | 0.03 | 0.01 | 93 | 1020.8 |
| 20260508162519 | 47 | 85 | 0.0 | 3.5 | 0.00 | 0.03 | 0.01 | 93 | 1020.9 |
| 20260508162016 | 47 | 103 | 0.9 | 2.6 | 0.00 | 0.03 | 0.01 | 93 | 1020.9 |
| 20260508161515 | 47 | 93 | 0.9 | 2.6 | 0.00 | 0.03 | 0.01 | 93 | 1021.1 |
| 20260508161016 | 47 | 97 | 0.9 | 3.5 | 0.00 | 0.03 | 0.01 | 92 | 1021.0 |
| 20260508160515 | 47 | 98 | 1.7 | 3.5 | 0.00 | 0.03 | 0.01 | 92 | 1020.9 |
| 20260508160021 | 48 | 78 | 0.0 | 3.5 | 0.00 | 0.03 | 0.01 | 92 | 1021.0 |
| 20260508155518 | 48 | 76 | 0.9 | 2.6 | 0.00 | 0.03 | 0.01 | 92 | 1021.1 |
| 20260508155014 | 48 | 58 | 0.9 | 3.5 | 0.00 | 0.03 | 0.01 | 94 | 1020.9 |
| 20260508154516 | 47 | 69 | 0.9 | 3.5 | 0.00 | 0.03 | 0.01 | 95 | 1021.0 |
| 20260508154018 | 46 | 81 | 0.9 | 3.5 | 0.00 | 0.03 | 0.01 | 95 | 1021.0 |
| 20260508153515 | 46 | 89 | 0.0 | 3.5 | 0.00 | 0.03 | 0.01 | 95 | 1021.0 |
| 20260508153011 | 46 | 82 | 0.9 | 2.6 | 0.00 | 0.03 | 0.01 | 95 | 1020.9 |
| 20260508152513 | 46 | 63 | 0.0 | 3.5 | 0.00 | 0.03 | 0.01 | 95 | 1021.0 |
| 20260508152014 | 46 | 49 | 0.0 | 2.6 | 0.00 | 0.03 | 0.01 | 95 | 1021.0 |
| 20260508151512 | 46 | 59 | 0.0 | 2.6 | 0.00 | 0.03 | 0.01 | 95 | 1021.2 |
| 20260508151013 | 46 | 133 | 0.0 | 1.7 | 0.00 | 0.03 | 0.01 | 96 | 1021.3 |
| 20260508150510 | 46 | 134 | 0.0 | 1.7 | 0.00 | 0.03 | 0.01 | 96 | 1021.2 |
| 20260508150032 | 46 | 138 | 0.9 | 1.7 | 0.00 | 0.03 | 0.01 | 96 | 1021.3 |
| 20260508145509 | 46 | 82 | 0.0 | 2.6 | 0.00 | 0.06 | 0.01 | 96 | 1021.3 |
| 20260508145010 | 46 | 81 | 0.9 | 2.6 | 0.00 | 0.06 | 0.01 | 96 | 1021.3 |
| 20260508144509 | 46 | 78 | 0.0 | 2.6 | 0.00 | 0.06 | 0.01 | 96 | 1021.3 |
| 20260508144010 | 46 | 78 | 0.0 | 1.7 | 0.00 | 0.06 | 0.01 | 96 | 1021.3 |
| 20260508143509 | 46 | 78 | 0.0 | 2.6 | 0.01 | 0.06 | 0.01 | 96 | 1021.3 |
| 20260508143011 | 46 | 124 | 0.9 | 2.6 | 0.01 | 0.06 | 0.01 | 96 | 1021.4 |
| 20260508142508 | 46 | 132 | 0.0 | 2.6 | 0.01 | 0.06 | 0.01 | 96 | 1021.3 |
| 20260508142007 | 46 | 81 | 0.9 | 3.5 | 0.01 | 0.06 | 0.01 | 96 | 1021.3 |
| 20260508141508 | 46 | 92 | 0.9 | 3.5 | 0.01 | 0.06 | 0.01 | 96 | 1021.2 |
| 20260508141006 | 46 | 306 | 0.9 | 2.6 | 0.01 | 0.06 | 0.01 | 97 | 1021.1 |
| 20260508140509 | 46 | 85 | 0.0 | 3.5 | 0.01 | 0.06 | 0.01 | 96 | 1021.2 |
| 20260508140011 | 46 | 307 | 0.9 | 3.5 | 0.01 | 0.06 | 0.01 | 96 | 1021.3 |
| 20260508135505 | 46 | 196 | 0.0 | 2.6 | 0.01 | 0.06 | 0.01 | 96 | 1021.2 |
| 20260508135006 | 46 | 84 | 0.0 | 4.3 | 0.01 | 0.06 | 0.01 | 96 | 1021.2 |
| 20260508134505 | 46 | 62 | 0.9 | 4.3 | 0.01 | 0.06 | 0.01 | 96 | 1021.2 |
| 20260508134008 | 46 | 126 | 0.9 | 3.5 | 0.00 | 0.05 | 0.00 | 95 | 1021.2 |
| 20260508133507 | 46 | 93 | 1.7 | 3.5 | 0.00 | 0.05 | 0.00 | 96 | 1021.2 |
| 20260508133008 | 46 | 94 | 0.0 | 3.5 | 0.00 | 0.05 | 0.00 | 96 | 1021.1 |
| 20260508132504 | 46 | 95 | 0.9 | 3.5 | 0.00 | 0.05 | 0.00 | 97 | 1021.1 |
| 20260508132003 | 46 | 68 | 0.0 | 3.5 | 0.00 | 0.05 | 0.00 | 98 | 1021.2 |
| 20260508131503 | 46 | 57 | 0.0 | 0.0 | 0.00 | 0.05 | 0.00 | 98 | 1021.2 |
| 20260508131005 | 45 | 57 | 0.0 | 2.6 | 0.00 | 0.05 | 0.00 | 97 | 1021.1 |
| 20260508130503 | 45 | 38 | 0.0 | 2.6 | 0.00 | 0.05 | 0.00 | 98 | 1021.2 |
| 20260508130003 | 45 | 82 | 0.0 | 0.9 | 0.00 | 0.05 | 0.00 | 97 | 1021.2 |
| 20260508125502 | 45 | 82 | 0.0 | 3.5 | 0.00 | 0.09 | 0.00 | 97 | 1021.2 |
| 20260508125003 | 45 | 74 | 1.7 | 3.5 | 0.00 | 0.09 | 0.00 | 97 | 1021.1 |
| 20260508124502 | 45 | 81 | 0.0 | 3.5 | 0.00 | 0.09 | 0.00 | 97 | 1021.1 |
| 20260508124002 | 45 | 75 | 0.0 | 2.6 | 0.00 | 0.09 | 0.00 | 97 | 1021.2 |
| 20260508123502 | 45 | 74 | 0.0 | 2.6 | 0.00 | 0.09 | 0.00 | 96 | 1021.3 |
| 20260508123001 | 45 | 72 | 0.0 | 3.5 | 0.00 | 0.09 | 0.00 | 96 | 1021.3 |
| 20260508122600 | 45 | 72 | 0.0 | 2.6 | 0.00 | 0.09 | 0.00 | 96 | 1021.2 |
| 20260508122059 | 45 | 66 | 0.9 | 2.6 | 0.00 | 0.09 | 0.00 | 97 | 1021.2 |
| 20260508121559 | 45 | 127 | 0.0 | 2.6 | 0.00 | 0.09 | 0.00 | 97 | 1021.1 |
| 20260508121058 | 45 | 103 | 0.0 | 2.6 | 0.00 | 0.09 | 0.00 | 97 | 1021.1 |
| 20260508120558 | 45 | 104 | 0.0 | 4.3 | 0.00 | 0.09 | 0.00 | 97 | 1021.1 |
| 20260508120101 | 45 | 58 | 0.9 | 4.3 | 0.00 | 0.09 | 0.00 | 97 | 1021.0 |
| 20260508115601 | 45 | 75 | 0.0 | 2.6 | 0.00 | 0.09 | 0.00 | 97 | 1020.9 |
| 20260508115057 | 45 | 94 | 0.9 | 3.5 | 0.00 | 0.09 | 0.00 | 97 | 1021.1 |
| 20260508114557 | 45 | 57 | 1.7 | 3.5 | 0.00 | 0.09 | 0.00 | 97 | 1021.0 |
| 20260508114057 | 45 | 105 | 0.9 | 2.6 | 0.00 | 0.09 | 0.00 | 96 | 1021.1 |
| 20260508113557 | 45 | 59 | 0.0 | 3.5 | 0.00 | 0.09 | 0.00 | 97 | 1021.0 |
| 20260508113058 | 45 | 77 | 0.0 | 2.6 | 0.00 | 0.09 | 0.00 | 97 | 1021.0 |
| 20260508112556 | 45 | 70 | 0.0 | 2.6 | 0.00 | 0.09 | 0.00 | 97 | 1021.0 |
| 20260508112057 | 45 | 81 | 0.0 | 0.9 | 0.00 | 0.09 | 0.00 | 97 | 1021.1 |
| 20260508111603 | 45 | 81 | 0.0 | 3.5 | 0.00 | 0.09 | 0.00 | 97 | 1021.1 |
| 20260508111056 | 45 | 80 | 0.9 | 4.3 | 0.00 | 0.09 | 0.00 | 96 | 1021.1 |
| 20260508110556 | 45 | 65 | 1.7 | 4.3 | 0.00 | 0.09 | 0.00 | 97 | 1021.1 |
| 20260508105555 | 45 | 265 | 0.9 | 1.7 | 0.00 | 0.09 | 0.00 | 97 | 1021.0 |
| 20260508105055 | 45 | 229 | 0.0 | 1.7 | 0.00 | 0.09 | 0.00 | 97 | 1021.1 |
| 20260508104555 | 45 | 75 | 0.0 | 3.5 | 0.00 | 0.09 | 0.00 | 97 | 1021.0 |
| 20260508104054 | 45 | 75 | 0.0 | 3.5 | 0.00 | 0.09 | 0.00 | 97 | 1021.0 |
| 20260508103553 | 44 | 70 | 0.0 | 3.5 | 0.00 | 0.09 | 0.00 | 97 | 1021.0 |
| 20260508103054 | 45 | 71 | 0.0 | 3.5 | 0.00 | 0.09 | 0.00 | 97 | 1021.0 |
| 20260508102551 | 45 | 56 | 0.0 | 3.5 | 0.00 | 0.09 | 0.00 | 98 | 1021.0 |
| 20260508102051 | 45 | 65 | 0.9 | 3.5 | 0.00 | 0.09 | 0.00 | 98 | 1020.9 |